Location: Gerlach
(40.6516°N, 119.3568°W)
Time: 07:24:29
(UTC-08:00)

SR - All Passes

Search period start: 27 January 2023 00:00
Search period end: 06 February 2023 00:00
Orbit: 581 x 870 km, 66.7° (Epoch: 26 January)

Date Brightness Start Highest point End Pass type
(mag) Time Alt. Az. Time Alt. Az. Time Alt. Az.
27 Jan - 01:11:09 10° NNW 01:15:27 86° ENE 01:19:40 10° SSE night (unlit)
27 Jan - 15:39:27 10° SSW 15:44:45 65° ESE 15:49:39 10° NE daylight
27 Jan - 17:23:29 10° W 17:27:06 19° NW 17:30:33 10° N daylight
28 Jan - 00:20:56 10° NNW 00:24:56 37° NE 00:28:52 10° ESE night (unlit)
28 Jan - 02:03:34 10° WNW 02:06:36 19° WSW 02:09:35 10° SSW night (unlit)
28 Jan - 14:49:46 10° S 14:54:26 31° ESE 14:58:49 10° NE daylight
28 Jan - 16:31:35 10° WSW 16:36:21 35° NW 16:40:48 10° NNE daylight
28 Jan - 23:31:09 10° N 23:34:13 19° NE 23:37:14 10° E night (unlit)
29 Jan - 01:12:20 10° NW 01:16:24 44° WSW 01:20:25 10° S night (unlit)
29 Jan - 14:01:21 10° SE 14:04:16 15° ESE 14:07:03 10° ENE daylight
29 Jan - 15:40:31 10° SW 15:45:48 69° WNW 15:50:41 10° NNE daylight
29 Jan - 17:26:58 10° WNW 17:28:34 11° NW 17:30:09 10° NNW daylight
30 Jan - 00:21:46 10° NNW 00:26:03 76° ENE 00:30:16 10° SE night (unlit)
30 Jan - 14:50:09 10° SSW 14:55:23 58° ESE 15:00:12 10° NE daylight
30 Jan - 16:33:50 10° W 16:37:39 21° NW 16:41:16 10° N daylight
30 Jan - 23:31:36 10° NNW 23:35:30 33° NE 23:39:20 10° ESE night (unlit)
31 Jan - 01:13:58 10° WNW 01:17:13 22° WSW 01:20:28 10° SSW night (unlit)
31 Jan - 14:00:37 10° SSE 14:05:04 28° ESE 14:09:16 10° NE daylight
31 Jan - 15:42:05 10° WSW 15:46:56 38° NW 15:51:27 10° NNE daylight
31 Jan - 22:41:54 10° N 22:44:44 17° NE 22:47:31 10° E night (unlit)
01 Feb - 00:22:52 10° NW 00:27:00 51° WSW 00:31:06 10° S night (unlit)
01 Feb - 13:12:34 10° SE 13:14:55 13° ESE 13:17:12 10° E daylight
01 Feb - 14:51:06 10° SSW 14:56:24 77° WNW 15:01:15 10° NNE daylight
01 Feb - 16:37:00 10° WNW 16:39:04 12° NW 16:41:06 10° NNW daylight
01 Feb - 23:32:21 10° NNW 23:36:37 66° ENE 23:40:49 10° SE night (unlit)
02 Feb - 01:17:18 10° W 01:17:56 10° WSW 01:18:34 10° WSW night (unlit)
02 Feb - 14:00:52 10° S 14:05:59 51° ESE 14:10:43 10° NE daylight
02 Feb - 15:44:12 10° W 15:48:11 22° NW 15:51:57 10° N daylight
02 Feb - 22:42:15 10° N 22:46:01 29° NE 22:49:45 10° ESE night (unlit)
03 Feb - 00:24:22 10° NW 00:27:50 25° WSW 00:31:18 10° SSW night (unlit)
03 Feb - 13:11:29 10° SSE 13:15:42 25° ESE 13:19:40 10° ENE daylight
03 Feb - 14:52:34 10° SW 14:57:29 42° NW 15:02:04 10° NNE daylight
03 Feb - 21:52:40 10° N 21:55:13 15° NE 21:57:45 10° E night (unlit)
03 Feb - 23:33:24 10° NW 23:37:35 59° WSW 23:41:45 10° SSE night (unlit)
04 Feb - 12:24:00 10° ESE 12:25:33 11° ESE 12:27:04 10° E daylight
04 Feb - 14:01:42 10° SSW 14:06:58 86° WNW 14:11:49 10° NNE daylight
04 Feb - 15:47:07 10° WNW 15:49:34 13° NW 15:51:56 10° NNW daylight
04 Feb - 22:42:57 10° NNW 22:47:10 57° ENE 22:51:20 10° SE night (unlit)
05 Feb - 00:26:55 10° W 00:28:33 12° WSW 00:30:11 10° SW night (unlit)
05 Feb - 13:11:34 10° S 13:16:35 45° ESE 13:21:12 10° NE daylight
05 Feb - 14:54:33 10° WSW 14:58:42 24° NW 15:02:36 10° N daylight
05 Feb - 21:52:54 10° N 21:56:32 26° NE 22:00:08 10° ESE night (unlit)
05 Feb - 23:34:47 10° NW 23:38:26 28° WSW 23:42:04 10° S night (unlit)
